Albany, NY

4:01 PM EST on December 09, 2019 (GMT -0500)
Albany International

Weather History for KALB - October, 2019

Change the Weather History Date:

Thursday, October 24, 2019

  Actual Average Record
Temperature  
Mean Temperature 52 °F 47 °F  
Max Temperature 68 °F 57 °F 75 °F (2017)
Min Temperature 35 °F 37 °F 16 °F (1969)
Degree Days  
Heating Degree Days 14 18  
Month to date heating degree days 292 343  
Since 1 July heating degree days 369 510  
Cooling Degree Days 0 0  
Month to date cooling degree days 4 0  
Year to date cooling degree days 771 594  
Growing Degree Days 2 (Base 50)    
Moisture  
Dew Point 36 °F    
Average Humidity 61    
Maximum Humidity 92    
Minimum Humidity 30    
Precipitation  
Precipitation 0.00 in 0.11 in 1.69 in (1923)
Month to date precipitation 5.79 2.88  
Year to date precipitation 37.00 32.33  
Snow  
Snow 0.00 in 0.00 in T in (1962)
Month to date snowfall 0.0 0.2  
Since 1 July snowfall 0.0 0.2  
Since 1 September snowfall 0.0 0.2  
Snow Depth 0.00 in    
Sea Level Pressure  
Sea Level Pressure 30.22 in    
Wind  
Wind Speed 5 mph ()    
Max Wind Speed 21 mph    
Max Gust Speed 27 mph    
Visibility 10.0 miles    
Events      
T = Trace of Precipitation, MM = Missing Value Source: Averaged Metar Reports

Daily Weather History Graph

Daily Weather History Graph

Search for Another Location

Airport or City:

Astronomy

Oct. 24, 2019 Rise Set
Actual Time 7:18 AM EDT 5:59 PM EDT
Civil Twilight 6:50 AM EDT 6:28 PM EDT
Nautical Twilight 6:17 AM EDT 7:01 PM EDT
Astronomical Twilight 5:44 AM EDT 7:33 PM EDT
Moon 2:37 AM EDT (10/24) 4:32 PM EDT (10/24)
Length of Visible Light 11h 37m
Length of Day
10h 40m
Waning Crescent, 17% of the Moon is Illuminated
Oct 24
Waning Crescent
Oct 27
New
Nov 4
First Quarter
Nov 12
Full
Nov 19
Last Quarter

Hourly Weather History & Observations

Time (EDT) Temp. Windchill Dew Point Humidity Pressure Visibility Wind Dir Wind Speed Gust Speed Precip Events Conditions
12:51 AM 39.9 °F - 36.0 °F 86% 30.17 in 10.0 mi Calm Calm - N/A   Clear
1:51 AM 39.9 °F - 34.0 °F 79% 30.18 in 10.0 mi Calm Calm - N/A   Clear
2:51 AM 39.0 °F - 35.1 °F 86% 30.19 in 10.0 mi Calm Calm - N/A   Clear
3:51 AM 37.9 °F - 34.0 °F 86% 30.20 in 10.0 mi Calm Calm - N/A   Clear
4:51 AM 37.0 °F - 34.0 °F 89% 30.22 in 10.0 mi Calm Calm - N/A   Clear
5:51 AM 35.1 °F - 33.1 °F 92% 30.24 in 10.0 mi Calm Calm - N/A   Clear
6:51 AM 39.9 °F 35.1 °F 34.0 °F 79% 30.25 in 10.0 mi South 6.9 mph - N/A   Clear
7:51 AM 39.0 °F - 34.0 °F 82% 30.25 in 10.0 mi Calm Calm - N/A   Partly Cloudy
8:51 AM 46.0 °F 41.4 °F 35.1 °F 66% 30.27 in 10.0 mi South 9.2 mph - N/A   Partly Cloudy
9:51 AM 50.0 °F - 36.0 °F 59% 30.28 in 10.0 mi SSE 9.2 mph - N/A   Partly Cloudy
10:51 AM 53.1 °F - 36.0 °F 52% 30.27 in 10.0 mi SSE 11.5 mph - N/A   Partly Cloudy
11:51 AM 57.9 °F - 37.0 °F 46% 30.23 in 10.0 mi South 15.0 mph 24.2 mph N/A   Partly Cloudy
12:51 PM 62.1 °F - 36.0 °F 38% 30.20 in 10.0 mi South 17.3 mph 24.2 mph N/A   Partly Cloudy
1:51 PM 66.0 °F - 37.0 °F 34% 30.18 in 10.0 mi South 18.4 mph 23.0 mph N/A   Partly Cloudy
2:51 PM 68.0 °F - 36.0 °F 31% 30.16 in 10.0 mi South 15.0 mph 23.0 mph N/A   Scattered Clouds
3:51 PM 66.9 °F - 35.1 °F 31% 30.17 in 10.0 mi South 17.3 mph 26.5 mph N/A   Partly Cloudy
5:51 PM 64.9 °F - 36.0 °F 34% 30.17 in 10.0 mi South 9.2 mph - N/A   Partly Cloudy
6:51 PM 63.0 °F - 35.1 °F 35% 30.18 in 10.0 mi South 12.7 mph - N/A   Scattered Clouds
7:51 PM 60.1 °F - 36.0 °F 41% 30.23 in 10.0 mi WNW 11.5 mph - N/A   Partly Cloudy
8:51 PM 55.0 °F - 39.0 °F 55% 30.25 in 10.0 mi NW 5.8 mph - N/A   Partly Cloudy
9:51 PM 52.0 °F - 37.9 °F 59% 30.27 in 10.0 mi WSW 3.5 mph - N/A   Scattered Clouds
10:51 PM 51.1 °F - 39.0 °F 63% 30.28 in 10.0 mi West 5.8 mph - N/A   Partly Cloudy
11:51 PM 46.0 °F - 39.0 °F 76% 30.30 in 10.0 mi Calm Calm - N/A   Mostly Cloudy